Terug naar catalogus

STARLINK-37265

ActiefCommunicatieSSO
NORAD 69548·PAYLOAD·🇺🇸 United States

Gelanceerd Jun 15, 2026 vanaf Vandenberg Space Force Base

Loading…

Volgende Passages (komende 24 uur)

TLE

VersSource: CelesTrak SupGP

Epoch: Sep 15, 2026, 04:06 UTC

1 69548C 26135C   26258.17131944 -.00055312  00000+0 -17172-2 0  2587
2 69548  97.2833 285.8804 0001279  88.7799 137.9389 15.33464897    19

Volg STARLINK-37265 in realtime met AllMySat

Download on the App Store